Left ArrowRight Arrow

41.82399, -71.41283

Hourly Observations for December 9, 2019

Temp ( °F °C ) Dew Point ( °F °C ) Humidity (%) Winds ( mph kmh ) Pressure ( in mb ) Visibility ( mi km ) Precip ( " mm )
12:51 am 00:51 Clear 34 1.1 31 -0.6 89 89 Calm 30.33 1027 10 16 0.00 0.00
1:51 am 01:51 Mostly Cloudy 31 -0.6 29 -1.7 92 92 Calm 30.32 1027 10 16 0.00 0.00
2:51 am 02:51 Cloudy with Light Rain 34 1.1 32 0 92 92 Calm 30.31 1026 10 16 0.00 0.00
3:51 am 03:51 Cloudy 37 2.8 35 1.7 93 93 Calm 30.28 1025 10 16 0.00 0.00
4:51 am 04:51 Cloudy 36 2.2 35 1.7 97 97 Calm 30.27 1025 10 16 0.00 0.00
5:51 am 05:51 Cloudy 39 3.9 37 2.8 93 93 Calm 30.24 1024 10 16 0.00 0.00
6:29 am 06:29 Cloudy with Mist and Fog 40 4.4 38 3.3 93 93 Calm 30.24 1024 4 6 0.00 0.00
6:48 am 06:48 Cloudy with Light Rain 37 3 37 3 100 100 WNW 3 6 30.24 1024 3 5 0.00 0.00
6:51 am 06:51 Cloudy with Light Rain 38 3.3 37 2.8 97 97 Calm 30.23 1024 1 2 0.01 0.25
7:04 am 07:04 Cloudy with Light Rain 39 3.9 39 3.9 100 100 Calm 30.23 1024 1 2 0.00 0.00
7:31 am 07:31 Cloudy with Light Rain 39 3.9 38 3.3 96 96 Calm 30.23 1024 1 2 0.01 0.25
7:51 am 07:51 Cloudy with Light Rain 39 3.9 39 3.9 100 100 Calm 30.22 1023 1 1 0.02 0.51
8:08 am 08:08 Cloudy with Light Rain 40 4.4 40 4.4 100 100 Calm 30.21 1023 1 1 0.01 0.25
8:19 am 08:19 Mostly Cloudy with Light Rain 40 4.4 40 4.4 100 100 Calm 30.21 1023 1 1 0.02 0.51
8:38 am 08:38 Mostly Cloudy with Light Rain 41 5 41 5 100 100 NNE 3 6 30.20 1023 1 1 0.03 0.76
8:51 am 08:51 Mostly Cloudy with Light Rain 43 6.1 42 5.6 97 97 NE 3 6 30.19 1022 1 1 0.04 1.02
9:08 am 09:08 Cloudy with Light Rain 43 6.1 42 5.6 97 97 ENE 3 6 30.18 1022 0 0 0.01 0.25
9:51 am 09:51 Cloudy with Rain 49 9.4 49 9.4 100 100 S 9 15 30.18 1022 0 0 0.08 2.03
9:53 am 09:53 Cloudy with Heavy Rain 49 9.4 49 9.4 100 100 S 10 17 30.18 1022 1 2 0.01 0.25
10:01 am 10:01 Cloudy with Heavy Rain 50 10 50 10 100 100 S 12 19 30.17 1022 2 3 0.05 1.27
10:12 am 10:12 Cloudy with Rain 51 10.6 50 10 96 96 S 13 20 30.16 1021 3 5 0.09 2.29
10:25 am 10:25 Cloudy with Heavy Rain 51 10.6 51 10.6 100 100 S 15 24 30.15 1021 3 5 0.13 3.30
10:51 am 10:51 Cloudy with Rain 52 11.1 52 11.1 100 100 S 13 20 30.14 1021 3 4 0.21 5.33
10:58 am 10:58 Cloudy with Rain 53 11.7 52 11.1 96 96 S 13 20 30.13 1020 3 5 0.04 1.02
11:11 am 11:11 Cloudy with Rain 53 11.7 52 11.1 96 96 S 13 20 30.11 1020 3 5 0.07 1.78
11:20 am 11:20 Cloudy with Rain 53 11.7 52 11.1 96 96 S 15 24 30.10 1019 3 5 0.08 2.03
11:35 am 11:35 Cloudy with Light Rain 52 11.1 52 11.1 100 100 S 13 20 30.09 1019 3 5 0.10 2.54
11:46 am 11:46 Cloudy with Rain 52 11 52 11 100 100 S 13 20 30.07 1018 3 5 0.11 2.79
11:51 am 11:51 Cloudy with Light Rain 51 10.6 51 10.6 100 100 S 14 22 30.08 1019 3 5 0.12 3.05
12:16 pm 12:16 Cloudy with Rain 54 12.2 53 11.7 97 97 S 16 26 30.06 1018 2 3 0.05 1.27
12:27 pm 12:27 Cloudy with Rain 54 12.2 53 11.7 97 97 S 17 28 30.06 1018 2 2 0.08 2.03
12:36 pm 12:36 Cloudy with Rain 54 12 54 12 100 100 S 23 37 30.05 1018 2 2 0.00 0.00
12:51 pm 12:51 Cloudy with Mist and Fog 55 12.8 54 12.2 96 96 S 24 39 30.04 1017 2 2 0.12 3.05
12:53 pm 12:53 Cloudy 55 12.8 54 12.2 96 96 S 22 35 30.04 1017 10 16 0.00 0.00
1:44 pm 13:44 Cloudy with Light Rain 54 12 54 12 100 100 S 13 20 30.00 1016 2 3 0.00 0.00
1:51 pm 13:51 Cloudy with Light Rain 54 12.2 53 11.7 97 97 S 15 24 29.99 1016 2 3 0.02 0.51
2:05 pm 14:05 Cloudy with Rain 54 12.2 53 11.7 97 97 S 16 26 29.99 1016 1 2 0.01 0.25
2:41 pm 14:41 Cloudy with Light Rain 54 12.2 53 11.7 97 97 S 18 30 29.97 1015 2 3 0.06 1.52
2:51 pm 14:51 Cloudy with Light Rain 54 12.2 53 11.7 97 97 S 20 31 29.96 1015 2 3 0.07 1.78
2:59 pm 14:59 Cloudy with Mist and Fog 54 12.2 53 11.7 97 97 S 17 28 29.96 1015 4 6 0.00 0.00
3:14 pm 15:14 Cloudy with Light Rain 54 12.2 53 11.7 97 97 S 15 24 29.95 1014 3 5 0.00 0.00
3:39 pm 15:39 Cloudy with Light Rain 56 13.3 54 12.2 93 93 S 17 28 29.94 1014 3 5 0.01 0.25
3:45 pm 15:45 Cloudy with Rain 55 13 54 12 94 94 S 17 28 29.94 1014 2 2 0.00 0.00
3:51 pm 15:51 Cloudy with Heavy Rain 56 13.3 54 12.2 93 93 S 14 22 29.93 1014 2 2 0.03 0.76
4:28 pm 16:28 Cloudy with Heavy Rain 56 13.3 55 12.8 97 97 SSW 14 22 29.92 1013 1 2 0.27 6.86
4:47 pm 16:47 Cloudy with Heavy Rain 55 13 54 12 94 94 SSW 16 26 29.91 1013 3 5 0.36 9.14
4:48 pm 16:48 Cloudy with Heavy Rain 56 13.3 54 12.2 93 93 S 16 26 29.91 1013 3 5 0.37 9.40
5:51 pm 17:51 Cloudy with Heavy Rain 55 12.8 55 12.8 100 100 SSW 12 19 29.89 1012 3 5 0.17 4.32
6:51 pm 18:51 Cloudy with Light Rain 56 13.3 55 12.8 97 97 S 10 17 29.86 1011 10 16 0.08 2.03
7:06 pm 19:06 Cloudy with Light Rain 56 13.3 55 12.8 97 97 S 12 19 29.85 1011 10 16 0.01 0.25
7:37 pm 19:37 Cloudy with Rain 56 13.3 55 12.8 97 97 S 14 22 29.84 1011 7 11 0.05 1.27
7:40 pm 19:40 Cloudy with Rain 55 13 55 13 100 100 S 13 20 29.84 1011 7 11 0.00 0.00
7:51 pm 19:51 Cloudy with Rain 56 13.3 55 12.8 97 97 S 13 20 29.83 1010 7 11 0.07 1.78
8:51 pm 20:51 Cloudy with Heavy Rain 57 13.9 56 13.3 96 96 S 15 24 29.79 1009 4 6 0.12 3.05
9:13 pm 21:13 Cloudy with Rain 58 14.4 57 13.9 97 97 SSW 15 24 29.78 1008 5 8 0.11 2.79
9:47 pm 21:47 Cloudy with Rain 57 14 57 14 100 100 SSW 16 26 29.76 1008 8 13 0.18 4.57
9:51 pm 21:51 Cloudy with Rain 58 14.4 57 13.9 97 97 S 16 26 29.76 1008 8 13 0.19 4.83
10:51 pm 22:51 Cloudy with Light Rain 59 15 57 13.9 93 93 SSW 21 33 29.72 1007 5 8 0.16 4.06
11:31 pm 23:31 Cloudy with Light Rain 59 15 57 13.9 93 93 SSW 22 35 29.72 1006 10 16 0.04 1.02
11:51 pm 23:51 Cloudy with Light Rain 59 15 57 13.9 93 93 SW 20 31 29.72 1006 10 16 0.04 1.02

Powered by Vaisala Xweather